GW2924 Weather Reports


Display with metric or nautical units.
time (UTC)temp
F
wind
direction
speed
MPH
gust
MPH
rain 1hr
in
rain 24hr
in
rain mn
in
humidity
%
barometer
mb
20260905152556 72 104 5.0 9.0 0.00 0.00 0.00 91 1018.3
20260905152054 72 79 4.0 8.0 0.00 0.00 0.00 92 1018.3
20260905151604 72 56 3.0 8.0 0.00 0.00 0.00 93 1018.2
20260905151053 72 98 2.0 8.0 0.00 0.00 0.00 94 1018.3
20260905150553 71 58 3.0 8.0 0.00 0.00 0.00 94 1018.4
20260905150104 71 121 3.0 7.0 0.00 0.00 0.00 95 1018.4
20260905145554 71 72 4.0 7.0 0.00 0.00 0.00 96 1018.2
20260905145056 71 72 4.0 9.0 0.00 0.00 0.00 96 1018.1
20260905144605 70 71 4.0 9.0 0.00 0.00 0.00 96 1018.2
20260905144054 70 65 5.0 8.0 0.00 0.00 0.00 96 1018.1
20260905143554 70 65 3.0 7.0 0.00 0.00 0.00 97 1018.1
20260905143104 70 75 4.0 8.0 0.00 0.00 0.00 97 1018.1
20260905142556 70 79 4.0 9.0 0.00 0.00 0.00 97 1018.0
20260905142056 70 67 5.0 9.0 0.00 0.00 0.00 97 1017.9
20260905141602 70 60 5.0 9.0 0.00 0.00 0.00 97 1017.9
20260905141056 70 80 2.0 7.0 0.00 0.00 0.00 97 1017.9
20260905140556 69 68 3.0 7.0 0.00 0.00 0.00 97 1017.8
20260905140105 69 49 4.0 7.0 0.00 0.00 0.00 97 1017.8
20260905135556 69 58 4.0 6.0 0.00 0.00 0.00 97 1017.8
20260905135053 69 70 4.0 8.0 0.00 0.00 0.00 97 1017.8
20260905134610 69 62 4.0 8.0 0.00 0.00 0.00 97 1017.9
20260905134057 69 57 4.0 6.0 0.00 0.00 0.00 97 1017.7
20260905133557 69 24 3.0 6.0 0.00 0.00 0.00 97 1017.8
20260905133102 69 63 3.0 7.0 0.00 0.00 0.00 97 1017.7
20260905132557 69 72 3.0 7.0 0.00 0.00 0.00 97 1017.5
20260905132100 69 82 4.0 7.0 0.00 0.00 0.00 97 1017.6
20260905131607 69 67 4.0 7.0 0.00 0.00 0.00 97 1017.4
20260905131056 69 72 4.0 7.0 0.00 0.00 0.00 97 1017.3
20260905130557 69 53 3.0 6.0 0.00 0.00 0.00 97 1017.2
20260905125557 69 174 4.0 7.0 0.00 0.00 0.00 97 1016.8
20260905125056 69 68 4.0 7.0 0.00 0.00 0.00 97 1016.8
20260905124602 69 82 3.0 8.0 0.00 0.00 0.00 97 1016.6
20260905124056 69 56 4.0 8.0 0.00 0.00 0.00 97 1016.5
20260905123557 69 70 4.0 8.0 0.00 0.00 0.00 97 1016.5
20260905123058 69 62 3.0 8.0 0.00 0.00 0.00 97 1016.4
20260905122554 69 67 5.0 8.0 0.00 0.00 0.00 97 1016.3
20260905122054 69 120 4.0 8.0 0.00 0.00 0.00 97 1016.3
20260905121605 69 56 4.0 6.0 0.00 0.00 0.00 97 1016.4
20260905121054 69 68 3.0 6.0 0.00 0.00 0.00 97 1016.4
20260905120556 69 106 3.0 6.0 0.00 0.00 0.00 97 1016.4
20260905120119 69 76 3.0 6.0 0.00 0.00 0.00 97 1016.4
20260905115556 69 68 2.0 4.0 0.00 0.00 0.00 97 1016.4
20260905115056 69 77 2.0 4.0 0.00 0.00 0.00 97 1016.3
20260905114601 69 70 2.0 6.0 0.00 0.00 0.00 97 1016.4
20260905114056 69 75 3.0 6.0 0.00 0.00 0.00 97 1016.3
20260905113556 69 116 1.0 3.0 0.00 0.00 0.00 97 1016.3
20260905113104 69 49 1.0 5.0 0.00 0.00 0.00 97 1016.2
20260905112554 69 76 1.0 5.0 0.00 0.00 0.00 97 1016.2
20260905112053 69 70 2.0 3.0 0.00 0.00 0.00 97 1015.9
20260905111615 68 0 1.0 3.0 0.00 0.00 0.00 97 1016.0
20260905111054 68 63 2.0 3.0 0.00 0.00 0.00 97 1016.3
20260905110554 68 53 1.0 2.0 0.00 0.00 0.00 97 1016.2
20260905110104 68 55 1.0 3.0 0.00 0.00 0.00 97 1016.3
20260905105553 68 73 1.0 3.0 0.00 0.00 0.00 97 1016.3
20260905105053 68 76 2.0 3.0 0.00 0.00 0.00 97 1016.3
20260905104600 68 68 1.0 3.0 0.00 0.00 0.00 97 1016.3
20260905104054 68 51 1.0 3.0 0.00 0.00 0.00 97 1016.3
20260905103554 68 91 1.0 5.0 0.00 0.00 0.00 97 1016.1
20260905103104 68 60 1.0 5.0 0.00 0.00 0.00 97 1016.0
20260905102555 68 29 2.0 5.0 0.00 0.00 0.00 97 1016.1
20260905102053 68 56 2.0 5.0 0.00 0.00 0.00 97 1016.2
20260905101601 67 89 3.0 5.0 0.00 0.00 0.00 97 1016.1
20260905101055 67 46 3.0 6.0 0.00 0.00 0.00 97 1016.0
20260905100553 67 41 2.0 6.0 0.00 0.00 0.00 97 1016.1
20260905100107 67 69 2.0 5.0 0.00 0.00 0.00 97 1015.8
20260905095553 67 63 3.0 7.0 0.00 0.00 0.00 97 1015.4
20260905095053 67 69 3.0 7.0 0.00 0.00 0.00 97 1015.1
20260905094603 67 46 4.0 6.0 0.00 0.00 0.00 96 1015.0
20260905094055 67 80 3.0 7.0 0.00 0.00 0.00 96 1015.1
20260905093553 67 53 3.0 7.0 0.00 0.00 0.00 96 1015.3
20260905093104 67 57 4.0 8.0 0.00 0.00 0.00 96 1015.1
20260905092557 67 51 4.0 8.0 0.00 0.00 0.00 96 1015.1
20260905092053 67 48 5.0 8.0 0.00 0.00 0.00 96 1015.1
20260905091621 67 75 2.0 7.0 0.00 0.00 0.00 96 1015.1
20260905091055 67 54 3.0 7.0 0.00 0.00 0.00 96 1015.2
20260905090556 67 41 3.0 7.0 0.00 0.00 0.00 96 1015.4
20260905090121 67 53 4.0 7.0 0.00 0.00 0.00 96 1015.4
20260905085556 67 60 3.0 6.0 0.00 0.00 0.00 97 1015.4
20260905085052 66 51 1.0 3.0 0.00 0.00 0.00 96 1015.4
20260905084610 66 34 2.0 3.0 0.00 0.00 0.00 96 1015.6
20260905084056 66 50 2.0 3.0 0.00 0.00 0.00 96 1015.6
20260905083554 66 58 1.0 1.0 0.00 0.00 0.00 95 1015.6
20260905083103 66 70 0.0 1.0 0.00 0.00 0.00 95 1015.8
20260905082553 66 70 0.0 1.0 0.00 0.00 0.00 95 1015.8
20260905082054 67 0 0.0 1.0 0.00 0.00 0.00 95 1015.8
20260905081602 67 70 0.0 1.0 0.00 0.00 0.00 95 1015.9
20260905081053 67 0 0.0 2.0 0.00 0.00 0.00 95 1016.0
20260905080556 67 0 0.0 2.0 0.00 0.00 0.00 95 1016.0
20260905080107 67 29 0.0 2.0 0.00 0.00 0.00 95 1016.0
20260905075553 67 0 0.0 2.0 0.00 0.00 0.00 95 1016.0
20260905075053 67 0 0.0 2.0 0.00 0.00 0.00 95 1016.0
20260905074605 67 24 0.0 2.0 0.00 0.00 0.00 95 1016.0
20260905074053 67 0 0.0 0.0 0.00 0.00 0.00 95 1015.8
20260905073553 67 0 0.0 0.0 0.00 0.00 0.00 95 1016.1
20260905073105 67 0 0.0 2.0 0.00 0.00 0.00 95 1016.0
20260905072554 67 0 0.0 3.0 0.00 0.00 0.00 95 1016.0
20260905072053 68 0 1.0 3.0 0.00 0.00 0.00 94 1016.0
20260905071600 68 21 0.0 3.0 0.00 0.00 0.00 94 1015.9
20260905071054 68 19 0.0 1.0 0.00 0.00 0.00 94 1015.8
20260905070553 68 0 0.0 1.0 0.00 0.00 0.00 94 1015.7
20260905070107 68 19 0.0 3.0 0.00 0.00 0.00 94 1015.7
20260905065555 68 19 1.0 3.0 0.00 0.00 0.00 94 1015.6
20260905065053 68 27 1.0 2.0 0.00 0.00 0.00 94 1015.7
20260905064604 68 27 0.0 3.0 0.00 0.00 0.00 94 1015.7
20260905064059 68 0 1.0 3.0 0.00 0.00 0.00 94 1015.7
20260905063555 68 36 1.0 3.0 0.00 0.00 0.00 94 1015.7
20260905063102 68 33 2.0 3.0 0.00 0.00 0.00 94 1015.6
20260905062553 68 32 1.0 2.0 0.00 0.00 0.00 94 1015.7
20260905062053 69 34 1.0 3.0 0.00 0.00 0.00 93 1015.7
20260905061623 69 0 0.0 3.0 0.00 0.00 0.00 93 1015.7
20260905061056 69 29 2.0 3.0 0.00 0.00 0.00 93 1015.7
20260905060553 69 33 0.0 3.0 0.00 0.00 0.00 93 1015.6
20260905060109 70 0 0.0 3.0 0.00 0.00 0.00 92 1015.6
20260905055552 70 30 2.0 3.0 0.00 0.00 0.00 93 1015.7
20260905055053 70 27 2.0 3.0 0.00 0.00 0.00 93 1015.8
20260905054608 70 44 0.0 2.0 0.00 0.00 0.00 93 1015.8
20260905054052 70 44 1.0 4.0 0.00 0.00 0.00 93 1015.8
20260905053558 70 17 0.0 4.0 0.00 0.00 0.00 93 1015.7
20260905053104 70 75 1.0 4.0 0.00 0.00 0.00 93 1015.7
20260905052553 70 38 0.0 1.0 0.00 0.00 0.00 93 1015.6
20260905052053 70 0 0.0 0.0 0.00 0.00 0.00 93 1015.4
20260905051604 70 0 0.0 0.0 0.00 0.00 0.00 93 1015.2
20260905051053 70 0 0.0 0.0 0.00 0.00 0.00 93 1015.4
20260905050553 70 0 0.0 1.0 0.00 0.00 0.00 93 1015.3
20260905050101 70 0 0.0 1.0 0.00 0.00 0.00 93 1015.1
20260905045552 70 41 0.0 1.0 0.00 0.00 0.00 93 1015.1
20260905045053 71 0 0.0 1.0 0.00 0.00 0.00 93 1015.1
20260905044607 71 0 0.0 1.0 0.00 0.00 0.00 92 1015.3
20260905044052 71 41 0.0 1.0 0.00 0.00 0.00 92 1015.3
20260905043552 71 40 0.0 1.0 0.00 0.00 0.00 92 1015.3
20260905043104 71 37 0.0 2.0 0.00 0.00 0.00 92 1015.3
20260905042553 72 37 1.0 3.0 0.00 0.00 0.00 91 1015.3
20260905042053 72 37 1.0 3.0 0.00 0.00 0.00 91 1015.4
20260905041608 73 37 1.0 3.0 0.00 0.00 0.00 91 1015.4
20260905041053 73 0 0.0 3.0 0.00 0.00 0.00 91 1015.3
20260905040553 73 27 0.0 3.0 0.00 0.00 0.00 91 1015.3
20260905040059 73 27 1.0 3.0 0.00 0.00 0.00 91 1015.3
20260905035552 73 0 0.0 0.0 0.00 0.00 0.00 91 1015.3
20260905035053 73 0 0.0 0.0 0.00 0.00 0.00 91 1015.3
20260905034613 74 0 0.0 1.0 0.00 0.00 0.00 90 1015.3
20260905034056 74 0 0.0 1.0 0.00 0.00 0.00 90 1015.3
20260905033552 74 0 0.0 1.0 0.00 0.00 0.00 90 1015.3
20260905033105 74 0 0.0 4.0 0.00 0.00 0.00 90 1015.4
20260905032553 75 0 0.0 4.0 0.00 0.00 0.00 89 1015.4
20260905032053 75 351 1.0 5.0 0.00 0.00 0.00 89 1015.3
20260905031614 75 33 2.0 5.0 0.00 0.00 0.00 89 1015.3
20260905031056 75 22 3.0 5.0 0.00 0.00 0.00 88 1015.3
20260905030553 75 27 3.0 4.0 0.00 0.00 0.00 88 1015.4
20260905030106 76 18 2.0 4.0 0.00 0.00 0.00 88 1015.3
20260905025552 76 37 2.0 4.0 0.00 0.00 0.00 88 1015.3
20260905025057 76 32 2.0 5.0 0.00 0.00 0.00 88 1015.3
20260905024607 77 58 2.0 5.0 0.00 0.00 0.00 87 1015.2
20260905024053 77 37 3.0 6.0 0.00 0.00 0.00 87 1015.4
20260905023557 77 32 3.0 6.0 0.00 0.00 0.00 87 1015.3
20260905023109 77 43 3.0 6.0 0.00 0.00 0.00 87 1015.1
20260905022553 77 27 3.0 6.0 0.00 0.00 0.00 87 1014.9
20260905022054 77 32 4.0 6.0 0.00 0.00 0.00 87 1014.8
20260905021621 77 35 4.0 7.0 0.00 0.00 0.00 87 1014.8
20260905021052 77 32 4.0 7.0 0.00 0.00 0.00 87 1014.7
20260905020552 77 356 4.0 7.0 0.00 0.00 0.00 87 1014.6
20260905020125 77 351 3.0 5.0 0.00 0.00 0.00 88 1014.5
20260905015555 77 15 2.0 4.0 0.00 0.00 0.00 89 1014.4
20260905015055 77 58 1.0 3.0 0.00 0.00 0.00 89 1014.3
20260905014556 77 59 1.0 4.0 0.00 0.00 0.00 88 1014.3
20260905014053 78 56 2.0 5.0 0.00 0.00 0.00 87 1014.2
20260905013552 78 40 2.0 5.0 0.00 0.00 0.00 87 1014.1
20260905013107 78 24 2.0 5.0 0.00 0.00 0.00 88 1014.2
20260905012553 79 39 1.0 3.0 0.00 0.00 0.00 87 1014.1
20260905012053 79 31 0.0 3.0 0.00 0.00 0.00 87 1013.9
20260905011606 79 34 2.0 4.0 0.00 0.00 0.00 87 1013.8
20260905011052 79 31 2.0 4.0 0.00 0.00 0.00 86 1013.7
20260905010553 79 37 2.0 4.0 0.00 0.00 0.00 86 1013.8
20260905010107 80 32 1.0 3.0 0.00 0.00 0.00 86 1013.7
20260905005553 80 30 0.0 2.0 0.00 0.00 0.00 85 1013.7
20260905005052 80 25 0.0 2.0 0.00 0.00 0.00 85 1013.7
20260905004608 81 27 0.0 3.0 0.00 0.00 0.00 84 1013.6
20260905004052 81 23 0.0 3.0 0.00 0.00 0.00 83 1013.7
20260905003553 82 6 1.0 3.0 0.00 0.00 0.00 83 1013.6
20260905003111 82 34 2.0 3.0 0.00 0.00 0.00 83 1013.6
20260905002556 82 26 1.0 5.0 0.00 0.00 0.00 82 1013.5
20260905002053 83 40 2.0 5.0 0.00 0.00 0.00 82 1013.5
20260905001607 83 27 3.0 5.0 0.00 0.00 0.00 81 1013.5
20260905001052 83 20 2.0 4.0 0.00 0.00 0.00 81 1013.4
20260905000553 83 35 1.0 5.0 0.00 0.00 0.00 81 1013.3
20260905000112 84 33 2.0 5.0 0.00 0.00 0.00 80 1013.3
20260904235555 84 13 1.0 5.0 0.00 0.00 0.00 80 1013.3
20260904235052 84 18 1.0 5.0 0.00 0.00 0.00 79 1013.4
20260904234611 85 31 1.0 7.0 0.00 0.00 0.00 79 1013.4
20260904234052 85 30 2.0 7.0 0.00 0.00 0.00 78 1013.3
20260904233554 85 34 4.0 7.0 0.00 0.00 0.00 78 1013.3
20260904233121 86 14 2.0 7.0 0.00 0.00 0.00 77 1013.2
20260904232553 86 31 2.0 7.0 0.00 0.00 0.00 77 1013.1
20260904232054 86 29 2.0 6.0 0.00 0.00 0.00 76 1013.1
20260904231608 87 53 2.0 6.0 0.00 0.00 0.00 76 1013.1
20260904231054 87 25 2.0 5.0 0.00 0.00 0.00 75 1013.0
20260904230553 88 34 1.0 5.0 0.00 0.00 0.00 75 1012.9
20260904230117 88 0 2.0 6.0 0.00 0.00 0.00 74 1012.9
20260904225553 88 16 1.0 6.0 0.00 0.00 0.00 75 1012.8
20260904225056 88 21 2.0 6.0 0.00 0.00 0.00 74 1012.7
20260904224608 89 12 1.0 7.0 0.00 0.00 0.00 74 1012.7
20260904224053 89 0 1.0 8.0 0.00 0.00 0.00 74 1012.7
20260904223554 88 0 4.0 8.0 0.00 0.00 0.00 76 1012.6
20260904223132 89 21 3.0 7.0 0.00 0.00 0.00 74 1012.5
20260904222553 89 33 0.0 7.0 0.00 0.00 0.00 75 1012.5
20260904222051 89 43 1.0 3.0 0.00 0.00 0.00 72 1012.4
20260904221606 90 0 0.0 1.0 0.00 0.00 0.00 72 1012.5
20260904221052 91 0 0.0 1.0 0.00 0.00 0.00 69 1012.5
20260904220553 92 0 0.0 1.0 0.00 0.00 0.00 66 1012.4
20260904220105 93 240 0.0 1.0 0.00 0.00 0.00 64 1012.4
20260904215553 92 0 0.0 0.0 0.00 0.00 0.00 67 1012.4
20260904215053 91 0 0.0 1.0 0.00 0.00 0.00 67 1012.4
20260904214606 90 0 0.0 2.0 0.00 0.00 0.00 68 1012.4
20260904214052 91 193 0.0 2.0 0.00 0.00 0.00 67 1012.4
20260904213556 92 229 0.0 1.0 0.00 0.00 0.00 66 1012.4
20260904213107 93 0 0.0 2.0 0.00 0.00 0.00 67 1012.4
20260904212556 93 136 0.0 4.0 0.00 0.00 0.00 62 1012.3
20260904212052 94 270 0.0 4.0 0.00 0.00 0.00 61 1012.3
20260904211603 95 276 1.0 4.0 0.00 0.00 0.00 59 1012.3
20260904211054 94 0 0.0 3.0 0.00 0.00 0.00 62 1012.3
20260904210555 93 0 1.0 3.0 0.00 0.00 0.00 63 1012.2
20260904210125 93 240 0.0 2.0 0.00 0.00 0.00 61 1012.3
20260904205556 92 62 0.0 2.0 0.00 0.00 0.00 63 1012.3
20260904205052 92 359 0.0 3.0 0.00 0.00 0.00 64 1012.3
20260904204602 93 360 1.0 3.0 0.00 0.00 0.00 63 1012.2
20260904204055 94 34 1.0 3.0 0.00 0.00 0.00 60 1012.3
20260904203555 94 85 0.0 2.0 0.00 0.00 0.00 61 1012.3
20260904203103 93 0 1.0 3.0 0.00 0.00 0.00 60 1012.3
20260904202555 93 0 1.0 3.0 0.00 0.00 0.00 61 1012.3
20260904202054 94 252 1.0 2.0 0.00 0.00 0.00 60 1012.3
20260904201609 93 290 0.0 2.0 0.00 0.00 0.00 62 1012.3
20260904201051 92 0 0.0 4.0 0.00 0.00 0.00 63 1012.3
20260904200552 92 53 2.0 4.0 0.00 0.00 0.00 63 1012.3
20260904200106 93 290 2.0 5.0 0.00 0.00 0.00 64 1012.4
20260904195552 92 38 1.0 5.0 0.00 0.00 0.00 64 1012.3
20260904195052 93 37 1.0 3.0 0.00 0.00 0.00 62 1012.2
20260904194603 93 295 0.0 4.0 0.00 0.00 0.00 66 1012.3
20260904194056 93 266 0.0 4.0 0.00 0.00 0.00 63 1012.3
20260904193556 93 261 0.0 3.0 0.00 0.00 0.00 62 1012.3
20260904193125 93 282 0.0 2.0 0.00 0.00 0.00 65 1012.3
20260904192556 93 264 0.0 3.0 0.00 0.00 0.00 63 1012.3
20260904192056 93 229 1.0 3.0 0.00 0.00 0.00 64 1012.4
20260904191602 93 235 1.0 4.0 0.00 0.00 0.00 63 1012.4
20260904191057 92 0 0.0 5.0 0.00 0.00 0.00 65 1012.5
20260904190557 92 27 2.0 5.0 0.00 0.00 0.00 62 1012.4
20260904190111 93 255 0.0 3.0 0.00 0.00 0.00 62 1012.5
20260904185556 93 245 1.0 3.0 0.00 0.00 0.00 61 1012.4
20260904185056 93 156 1.0 3.0 0.00 0.00 0.00 62 1012.5
20260904184604 93 0 0.0 3.0 0.00 0.00 0.00 62 1012.5
20260904184057 93 77 1.0 3.0 0.00 0.00 0.00 62 1012.4
20260904183556 93 187 0.0 3.0 0.00 0.00 0.00 64 1012.5
20260904183107 93 270 1.0 3.0 0.00 0.00 0.00 64 1012.5
20260904182557 93 279 0.0 2.0 0.00 0.00 0.00 64 1012.5
20260904182059 92 0 0.0 6.0 0.00 0.00 0.00 68 1012.5
20260904181603 91 258 1.0 6.0 0.00 0.00 0.00 65 1012.5
20260904181056 92 174 2.0 5.0 0.00 0.00 0.00 66 1012.5
20260904180556 91 276 1.0 3.0 0.00 0.00 0.00 67 1012.4
20260904180108 91 197 0.0 4.0 0.00 0.00 0.00 66 1012.3
20260904175556 91 245 2.0 4.0 0.00 0.00 0.00 65 1012.4
20260904175056 91 202 1.0 3.0 0.00 0.00 0.00 68 1012.4
20260904174611 91 124 0.0 3.0 0.00 0.00 0.00 67 1012.4
20260904174055 91 203 0.0 4.0 0.00 0.00 0.00 68 1012.3
20260904173555 90 246 0.0 5.0 0.00 0.00 0.00 67 1012.4
20260904173107 89 265 2.0 5.0 0.00 0.00 0.00 69 1012.4
20260904172556 90 259 2.0 5.0 0.00 0.00 0.00 67 1012.3
20260904172056 90 205 2.0 4.0 0.00 0.00 0.00 70 1012.4
20260904171602 90 278 2.0 4.0 0.00 0.00 0.00 70 1012.3
20260904171055 90 198 1.0 4.0 0.00 0.00 0.00 68 1012.3
20260904170556 90 264 1.0 4.0 0.00 0.00 0.00 68 1012.2
20260904170107 90 155 1.0 5.0 0.00 0.00 0.00 68 1012.3
20260904165556 89 175 1.0 5.0 0.00 0.02 0.00 71 1012.1
20260904165056 89 148 3.0 5.0 0.00 0.02 0.00 70 1012.1
20260904164641 89 142 2.0 5.0 0.00 0.02 0.00 72 1012.1
20260904164056 89 183 2.0 4.0 0.00 0.02 0.00 71 1012.2
20260904163556 89 146 1.0 3.0 0.00 0.02 0.00 73 1012.1
20260904163105 88 130 0.0 5.0 0.00 0.02 0.00 72 1012.2
20260904162556 88 150 1.0 5.0 0.00 0.02 0.00 72 1012.3
20260904162057 87 131 1.0 3.0 0.00 0.02 0.00 73 1012.3
20260904161610 86 174 0.0 5.0 0.00 0.02 0.00 74 1012.2
20260904161056 86 68 1.0 5.0 0.00 0.02 0.00 76 1012.2
20260904160555 85 51 2.0 4.0 0.00 0.02 0.00 75 1012.2
20260904160107 86 94 1.0 4.0 0.00 0.02 0.00 75 1012.2
20260904155553 85 57 1.0 4.0 0.00 0.02 0.00 75 1012.2
20260904155051 85 34 2.0 4.0 0.00 0.02 0.00 76 1012.1
20260904154605 85 48 1.0 4.0 0.00 0.02 0.00 75 1012.0
20260904154051 85 350 0.0 4.0 0.00 0.02 0.00 76 1012.1
20260904153551 84 0 2.0 4.0 0.00 0.02 0.00 74 1012.1
20260904153104 85 78 0.0 3.0 0.00 0.02 0.00 74 1012.0